Weather History for Cut Bank, MT

Change the Weather History Date:

Wednesday, April 3, 2013

  Actual Average Record
Temperature  
Mean Temperature 41 °F 37 °F  
Max Temperature 49 °F 49 °F 72 °F (1992)
Min Temperature 32 °F 26 °F -15 °F (1935)
Degree Days  
Heating Degree Days 24 28  
Month to date heating degree days 70 84  
Since 1 July heating degree days 6864 7182  
Cooling Degree Days 0 0  
Month to date cooling degree days 0 0  
Year to date cooling degree days 0 0  
Moisture  
Dew Point 27 °F    
Average Humidity 59    
Maximum Humidity 82    
Minimum Humidity 36    
Precipitation  
Precipitation 0.00 in 0.01 in 0.25 in (1921)
Month to date precipitation 0.00 0.05  
Year to date precipitation 1.30 0.96  
Snow  
Snow 0.00 in - - ()
Snow Depth 0.00 in    
Sea Level Pressure  
Sea Level Pressure 30.07 in    
Wind  
Wind Speed 13 mph (North)    
Max Wind Speed 31 mph    
Max Gust Speed 36 mph    
Visibility 10 miles    
Events      
T = Trace of Precipitation, MM = Missing Value Source: NWS Daily Summary

Daily Weather History Graph

Daily Weather History Graph

Search for Another Location

Airport:

Trip Planner

Search our weather history database for the weather conditions in past years. The results will help you decide how hot, cold, wet, or windy it might be!

Date:

Astronomy

Apr. 03, 2013 Rise Set
Actual Time 7:02 AM MDT 8:03 PM MDT
Civil Twilight 6:30 AM MDT 8:35 PM MDT
Nautical Twilight 5:52 AM MDT 9:14 PM MDT
Astronomical Twilight 5:11 AM MDT 9:55 PM MDT
Moon 3:17 AM MDT (4/3) 12:49 PM MDT (4/3)
Length of Visible Light 14h 05m
Length of Day
13h 01m
Last Quarter, 44% of the Moon is Illuminated
Apr 3
Last Quarter
Apr 10
New
Apr 18
First Quarter
Apr 25
Full
May 2
Last Quarter

Hourly Weather History & Observations

Time (MDT) Temp. Windchill Dew Point Humidity Pressure Visibility Wind Dir Wind Speed Gust Speed Precip Events Conditions
12:56 AM 46.0 °F 39.0 °F 30.9 °F 56% 29.86 in 10.0 mi West 17.3 mph - N/A   Clear
1:56 AM 44.1 °F 37.1 °F 30.9 °F 60% 29.88 in 10.0 mi West 15.0 mph - N/A   Clear
2:56 AM 46.0 °F 38.5 °F 30.9 °F 56% 29.88 in 10.0 mi West 19.6 mph - N/A   Clear
3:56 AM 44.1 °F 37.1 °F 30.9 °F 60% 29.90 in 10.0 mi West 15.0 mph - N/A   Clear
4:56 AM 46.0 °F 38.8 °F 32.0 °F 58% 29.92 in 10.0 mi West 18.4 mph - N/A   Clear
5:56 AM 46.9 °F - 32.0 °F 56% 29.94 in 10.0 mi West 23.0 mph - N/A   Clear
6:56 AM 45.0 °F 37.9 °F 32.0 °F 60% 29.96 in 10.0 mi West 16.1 mph - N/A   Overcast
7:18 AM 44.6 °F 37.2 °F 30.2 °F 57% 30.03 in 10.0 mi NNW 17.3 mph - N/A   Overcast
7:56 AM 36.0 °F 24.4 °F 30.0 °F 79% 30.07 in 10.0 mi North 23.0 mph 33.4 mph N/A   Mostly Cloudy
8:42 AM 35.6 °F 24.2 °F 30.2 °F 81% 30.09 in 10.0 mi North 21.9 mph 27.6 mph N/A   Mostly Cloudy
8:56 AM 36.0 °F 25.0 °F 28.9 °F 76% 30.14 in 10.0 mi North 20.7 mph - N/A   Overcast
9:30 AM 37.4 °F 27.5 °F 28.4 °F 70% 30.12 in 10.0 mi NNE 18.4 mph 25.3 mph N/A   Mostly Cloudy
9:45 AM 37.4 °F 26.6 °F 26.6 °F 65% 30.12 in 10.0 mi North 21.9 mph - N/A   Mostly Cloudy
9:56 AM 37.9 °F 27.6 °F 27.0 °F 65% 30.16 in 10.0 mi North 20.7 mph 25.3 mph N/A   Mostly Cloudy
10:56 AM 37.9 °F 27.9 °F 25.0 °F 60% 30.19 in 10.0 mi North 19.6 mph - N/A   Overcast
11:56 AM 41.0 °F 33.5 °F 23.0 °F 49% 30.19 in 10.0 mi NNE 13.8 mph 20.7 mph N/A   Overcast
12:56 PM 43.0 °F 36.8 °F 19.9 °F 40% 30.19 in 10.0 mi North 11.5 mph - N/A   Mostly Cloudy
1:56 PM 44.1 °F 41.5 °F 21.0 °F 40% 30.17 in 10.0 mi North 4.6 mph - N/A   Scattered Clouds
2:56 PM 45.0 °F 42.6 °F 21.9 °F 40% 30.14 in 10.0 mi NNE 4.6 mph - N/A   Mostly Cloudy
3:56 PM 48.9 °F - 23.0 °F 36% 30.11 in 10.0 mi SSE 11.5 mph - N/A   Overcast
4:56 PM 46.0 °F 41.9 °F 24.1 °F 42% 30.10 in 10.0 mi South 8.1 mph - N/A   Overcast
5:56 PM 48.9 °F - 26.1 °F 41% 30.07 in 10.0 mi South 8.1 mph - N/A   Mostly Cloudy
6:56 PM 46.9 °F - 28.9 °F 50% 30.07 in 10.0 mi SSE 11.5 mph - N/A   Mostly Cloudy
7:56 PM 45.0 °F 39.7 °F 28.9 °F 53% 30.09 in 10.0 mi SE 10.4 mph - N/A   Scattered Clouds
8:56 PM 41.0 °F 35.8 °F 28.0 °F 60% 30.10 in 10.0 mi ESE 8.1 mph - N/A   Mostly Cloudy
9:56 PM 41.0 °F 34.3 °F 26.1 °F 55% 30.10 in 10.0 mi ESE 11.5 mph - N/A   Overcast
10:56 PM 37.9 °F 30.9 °F 23.0 °F 55% 30.12 in 10.0 mi SE 10.4 mph - N/A   Mostly Cloudy
11:56 PM 35.1 °F 28.6 °F 21.9 °F 59% 30.14 in 10.0 mi NE 8.1 mph - N/A   Unknown